Location: Unspecified
(0.0000°N, 0.0000°E)
Time: 23:12:09
(UTC+00:00)

Explorer 11/Cluster Stage 4 - All Passes

Search period start: 30 June 2016 00:00
Search period end: 10 July 2016 00:00
Orbit: 467 x 1265 km, 28.8° (Epoch: 29 June)

Date Brightness Start Highest point End Pass type
(mag) Time Alt. Az. Time Alt. Az. Time Alt. Az.
30 Jun - 08:02:43 10° SSW 08:08:39 25° SSE 08:15:02 10° E daylight
30 Jun - 09:50:17 10° SW 09:58:20 74° SSE 10:06:34 10° ENE daylight
30 Jun - 11:40:24 10° W 11:47:59 39° NNW 11:55:10 10° NE daylight
30 Jun - 13:34:55 10° NW 13:37:56 12° NNW 13:40:49 10° N daylight
30 Jun - 20:56:37 10° NNW 20:59:49 23° NNE 21:02:47 10° E visible
30 Jun - 22:44:40 10° W 22:48:04 37° SSW 22:51:30 10° SE night (unlit)
01 Jul - 07:52:46 10° SSW 07:58:55 28° SSE 08:05:40 10° E daylight
01 Jul - 09:40:31 10° WSW 09:48:29 85° SSE 09:56:49 10° ENE daylight
01 Jul - 11:30:56 10° W 11:38:12 33° NNW 11:45:13 10° NNE daylight
01 Jul - 13:26:31 10° NW 13:28:22 11° NNW 13:30:11 10° N daylight
01 Jul - 20:46:40 10° NW 20:50:22 32° NNE 20:53:42 10° E visible
01 Jul - 22:35:25 10° W 22:38:35 27° SSW 22:41:44 10° SSE night (unlit)
02 Jul - 07:42:53 10° SSW 07:49:10 33° SSE 07:56:12 10° E daylight
02 Jul - 09:30:49 10° WSW 09:38:39 83° NNW 09:46:59 10° ENE daylight
02 Jul - 11:21:34 10° W 11:28:26 29° NNW 11:35:11 10° NNE daylight
02 Jul - 20:36:48 10° NW 20:40:54 44° NNE 20:44:28 10° ESE visible
02 Jul - 22:26:16 10° W 22:29:07 20° SSW 22:31:52 10° SSE night (unlit)
03 Jul - 07:33:02 10° SW 07:39:23 38° SSE 07:46:39 10° E daylight
03 Jul - 09:21:12 10° WSW 09:28:48 71° NNW 09:37:06 10° NE daylight
03 Jul - 11:12:18 10° WNW 11:18:43 25° NNW 11:25:07 10° NNE daylight
03 Jul - 18:40:05 10° N 18:42:27 13° NNE 18:44:38 10° NE visible
03 Jul - 20:27:00 10° NW 20:31:25 63° NNE 20:35:10 10° ESE visible
03 Jul - 22:17:17 10° WSW 22:19:37 16° SSW 22:21:52 10° S night (unlit)
04 Jul - 05:38:26 10° S 05:40:23 11° SSE 05:42:24 10° SE visible
04 Jul - 07:23:16 10° SW 07:29:36 44° SSE 07:37:03 10° ENE daylight
04 Jul - 09:11:39 10° WSW 09:19:00 60° NNW 09:27:09 10° NE daylight
04 Jul - 11:03:10 10° WNW 11:09:01 21° NNW 11:14:58 10° NNE daylight
04 Jul - 18:29:29 10° NNW 18:33:01 17° NNE 18:36:08 10° ENE visible
04 Jul - 20:17:14 10° WNW 20:21:54 87° NNE 20:25:48 10° ESE visible
04 Jul - 22:08:33 10° SW 22:10:07 12° SSW 22:11:37 10° S night (unlit)
05 Jul - 05:28:06 10° S 05:30:47 13° SSE 05:33:42 10° ESE visible
05 Jul - 07:13:33 10° SW 07:19:50 52° SSE 07:27:21 10° ENE daylight
05 Jul - 09:02:11 10° WSW 09:09:13 50° NNW 09:17:08 10° NE daylight
05 Jul - 10:54:08 10° WNW 10:59:23 18° NNW 11:04:43 10° NNE daylight
05 Jul - 18:19:08 10° NNW 18:23:34 23° NNE 18:27:20 10° ENE daylight
05 Jul - 20:07:31 10° WNW 20:12:22 70° SSW 20:16:21 10° SE visible
06 Jul - 05:17:59 10° S 05:21:11 15° SSE 05:24:44 10° ESE visible
06 Jul - 07:03:53 10° SW 07:10:04 61° SSE 07:17:36 10° ENE daylight
06 Jul - 08:52:48 10° W 08:59:29 42° NNW 09:07:04 10° NE daylight
06 Jul - 10:45:17 10° NW 10:49:47 16° NNW 10:54:23 10° NNE daylight
06 Jul - 18:08:55 10° NW 18:14:05 30° NNE 18:18:20 10° E daylight
06 Jul - 19:57:52 10° WNW 20:02:49 52° SSW 20:06:51 10° SE visible
07 Jul - 05:08:00 10° S 05:11:33 17° SSE 05:15:35 10° ESE visible
07 Jul - 06:54:17 10° SW 07:00:19 74° SSE 07:07:46 10° ENE daylight
07 Jul - 08:43:31 10° W 08:49:46 35° NNW 08:56:56 10° NE daylight
07 Jul - 10:36:39 10° NW 10:40:13 13° NNW 10:43:52 10° N daylight
07 Jul - 16:11:47 10° N 16:14:43 13° NNE 16:17:26 10° NE daylight
07 Jul - 17:58:47 10° NW 18:04:33 38° NNE 18:09:13 10° E daylight
07 Jul - 19:48:15 10° WNW 19:53:13 41° SSW 19:57:16 10° SE visible
08 Jul - 04:58:06 10° SSW 05:01:55 20° SSE 05:06:19 10° E visible
08 Jul - 06:44:46 10° WSW 06:50:35 88° SSE 06:57:54 10° ENE daylight
08 Jul - 08:34:19 10° W 08:40:07 29° NNW 08:46:44 10° NNE daylight
08 Jul - 10:28:26 10° NNW 10:30:42 11° NNW 10:33:01 10° N daylight
08 Jul - 16:01:01 10° NNW 16:05:15 16° NNE 16:09:03 10° ENE daylight
08 Jul - 17:48:42 10° NW 17:54:59 49° NNE 18:00:00 10° ESE daylight
08 Jul - 19:38:42 10° W 19:43:36 33° SSW 19:47:39 10° SSE visible
09 Jul - 04:48:18 10° SSW 04:52:16 24° SSE 04:56:58 10° E visible
09 Jul - 06:35:18 10° WSW 06:40:54 76° NNW 06:47:59 10° NE daylight
09 Jul - 08:25:16 10° WNW 08:30:30 24° NNW 08:36:28 10° NNE daylight
09 Jul - 15:50:32 10° NNW 15:55:43 20° NNE 16:00:19 10° ENE daylight
09 Jul - 17:38:41 10° NW 17:45:23 63° NNE 17:50:41 10° ESE daylight
09 Jul - 19:29:12 10° W 19:33:58 27° SSW 19:37:57 10° SSE visible
